Date String (YYYY-MM-DD hh:mm:ss) UTC,Instrument flags,absolute air pressure of the measurement (hPa),sample flow rate (lpm),inlet stack bypass flow (lpm),air temperature of the measurement (°C),ambient temperature measured by the external sensor (°C),aerosol sample conditioner tube jacket temperature (°C),OPC LED temperature (°C),internal box temperature (°C),relative humidity of the measurement (%),span deviation,mass concentration of particles derived from Lorenz-Mie calculation of OPC scattering (μg/m³),mass concentration of particles derived from Lorenz-Mie calculation of OPC scattering (μg/m³),mass concentration of particles derived from Lorenz-Mie calculation of OPC scattering (μg/m³)
DateTimeUTC,F1_M11,P_M11,Q1_M11,Q2_M11,T1_M11,T2_M11,T3_M11,T4_M11,T5_M11,U1_M11,ZSPAN_M11,X0_M11,X2_M11,X1_M11
2023-06-23 21:00:00,SystemResetWarning,0826.6,5.00,000.00,031.8,027.0,000.0,040.0,031.6,33.8,0002.0,0015.47,0009.75,0008.91
2023-06-23 21:01:00,SystemResetWarning,0826.6,5.01,000.00,031.7,027.3,000.0,040.0,031.7,33.8,0002.4,0015.53,0009.80,0008.94
2023-06-23 21:02:00,SystemResetWarning,0826.6,5.00,000.00,031.7,027.6,000.0,039.9,031.7,34.1,0002.4,0015.59,0009.83,0008.99
2023-06-23 21:03:00,SystemResetWarning,0826.6,4.99,000.00,031.7,027.9,000.0,039.9,031.8,34.3,0002.4,0015.63,0009.85,0009.02
2023-06-23 21:04:00,SystemResetWarning,0826.5,4.99,000.00,031.7,028.1,000.0,039.9,031.9,35.3,0002.3,0016.02,0009.90,0009.06
2023-06-23 21:05:00,SystemResetWarning,0826.5,5.03,000.00,031.8,028.2,000.0,039.9,032.0,35.3,0002.2,0016.19,0009.95,0009.13
2023-06-23 21:06:00,SystemResetWarning,0826.6,4.97,000.00,032.0,026.8,000.0,039.8,032.2,34.7,0002.4,0016.96,0010.03,0009.21
2023-06-23 21:07:00,SystemResetWarning,0826.6,5.02,000.00,032.2,025.2,000.0,039.8,032.1,33.9,0002.6,0017.17,0010.08,0009.28
2023-06-23 21:08:00,SystemResetWarning,0826.6,4.99,000.00,032.2,024.9,000.0,039.7,032.0,34.8,0002.8,0016.53,0010.10,0009.33
2023-06-23 21:09:00,SystemResetWarning,0826.6,5.04,000.00,032.2,025.2,000.0,039.8,031.6,34.4,0003.0,0017.23,0010.12,0009.35
2023-06-23 21:10:00,SystemResetWarning,0826.6,4.97,000.00,032.1,025.6,000.0,039.8,031.6,34.0,0002.8,0017.18,0010.06,0009.31
2023-06-23 21:11:00,SystemResetWarning,0826.6,5.01,000.00,032.1,026.2,000.0,039.8,031.6,33.6,0002.8,0018.24,0010.01,0009.26
2023-06-23 21:12:00,SystemResetWarning,0826.6,4.99,000.00,032.1,026.6,000.0,039.9,031.6,35.2,0002.6,0018.52,0009.96,0009.21
2023-06-23 21:13:00,SystemResetWarning,0826.6,5.03,000.00,032.2,027.0,000.0,039.9,031.8,34.2,0002.4,0018.67,0009.94,0009.17
2023-06-23 21:14:00,SystemResetWarning,0826.6,4.97,000.00,032.3,027.4,000.0,039.9,031.9,33.3,0002.5,0019.07,0009.90,0009.13
2023-06-23 21:15:00,SystemResetWarning,0826.6,5.02,000.00,032.4,027.7,000.0,040.0,031.9,32.4,0002.6,0018.94,0009.86,0009.10
2023-06-23 21:16:00,SystemResetWarning,0826.6,5.00,000.00,032.4,027.9,000.0,040.0,031.9,33.1,0002.6,0018.69,0009.80,0009.06
2023-06-23 21:17:00,SystemResetWarning,0826.6,5.00,000.00,032.4,028.2,000.0,040.1,032.0,34.2,0002.6,0018.19,0009.76,0008.99
2023-06-23 21:18:00,SystemResetWarning,0826.6,5.00,000.00,032.4,028.1,000.0,040.1,032.1,34.1,0002.6,0017.92,0009.69,0008.91
2023-06-23 21:19:00,SystemResetWarning,0826.5,5.00,000.00,032.5,026.4,000.0,040.1,032.1,33.9,0002.7,0017.94,0009.65,0008.86
2023-06-23 21:20:00,SystemResetWarning,0826.4,5.00,000.00,032.5,025.1,000.0,040.1,032.0,32.8,0002.6,0017.26,0009.63,0008.80
2023-06-23 21:21:00,SystemResetWarning,0826.4,5.00,000.00,032.4,025.0,000.0,040.0,031.9,32.7,0002.8,0016.94,0009.64,0008.79
2023-06-23 21:22:00,SystemResetWarning,0826.4,5.01,000.00,032.2,025.3,000.0,040.0,031.5,34.5,0003.0,0016.60,0009.64,0008.81
2023-06-23 21:23:00,SystemResetWarning,0826.4,4.98,000.00,032.1,025.8,000.0,040.0,031.5,35.4,0003.1,0015.88,0009.67,0008.85
2023-06-23 21:24:00,SystemResetWarning,0826.4,5.03,000.00,032.2,026.3,000.0,040.0,031.6,34.9,0003.2,0016.67,0009.70,0008.89
2023-06-23 21:25:00,SystemResetWarning,0826.4,4.96,000.00,032.3,026.8,000.0,040.0,031.8,33.9,0003.2,0016.33,0009.74,0008.92
2023-06-23 21:26:00,SystemResetWarning,0826.4,5.01,000.00,032.3,027.2,000.0,040.0,031.8,34.2,0003.2,0015.84,0009.74,0008.95
2023-06-23 21:27:00,SystemResetWarning,0826.4,4.99,000.00,032.4,027.5,000.0,040.1,031.9,35.4,0003.2,0015.92,0009.75,0008.95
2023-06-23 21:28:00,SystemResetWarning,0826.4,5.04,000.00,032.5,027.8,000.0,040.1,032.0,34.2,0003.2,0016.16,0009.74,0008.93
2023-06-23 21:29:00,SystemResetWarning,0826.4,4.96,000.00,032.6,028.0,000.0,040.1,032.1,33.6,0003.2,0016.56,0009.74,0008.94
2023-06-23 21:30:00,SystemResetWarning,0826.5,5.02,000.00,032.7,028.2,000.0,040.2,032.2,33.3,0003.1,0017.03,0009.77,0008.96
2023-06-23 21:31:00,SystemResetWarning,0826.5,5.00,000.00,032.8,026.9,000.0,040.2,032.3,33.5,0003.0,0017.30,0009.83,0009.00
2023-06-23 21:32:00,SystemResetWarning,0826.5,4.99,000.00,032.8,025.2,000.0,040.1,032.2,33.9,0002.9,0017.36,0009.84,0009.02
2023-06-23 21:33:00,SystemResetWarning,0826.5,5.01,000.00,032.8,024.9,000.0,040.1,032.1,32.9,0002.9,0017.85,0009.89,0009.04
2023-06-23 21:34:00,SystemResetWarning,0826.3,5.01,000.00,032.6,025.1,000.0,040.2,031.6,33.0,0002.8,0019.07,0009.99,0009.07
2023-06-23 21:35:00,SystemResetWarning,0826.4,5.00,000.00,032.4,025.6,000.0,040.2,031.6,34.4,0002.7,0018.82,0010.06,0009.14
2023-06-23 21:36:00,SystemResetWarning,0826.4,5.00,000.00,032.3,026.1,000.0,040.2,031.6,34.2,0002.7,0019.44,0010.11,0009.18
2023-06-23 21:37:00,SystemResetWarning,0826.3,5.00,000.00,032.2,026.6,000.0,040.2,031.7,34.1,0002.7,0020.45,0010.19,0009.25
2023-06-23 21:38:00,SystemResetWarning,0826.3,4.99,000.00,032.1,027.0,000.0,040.2,031.7,33.5,0002.8,0020.59,0010.31,0009.36
2023-06-23 21:39:00,SystemResetWarning,0826.3,5.00,000.00,032.1,027.4,000.0,040.2,031.7,34.5,0002.8,0021.09,0010.46,0009.51
2023-06-23 21:40:00,SystemResetWarning,0826.2,5.02,000.00,032.1,027.7,000.0,040.2,031.9,34.6,0002.8,0021.12,0010.60,0009.65
2023-06-23 21:41:00,SystemResetWarning,0826.2,4.98,000.00,032.1,027.9,000.0,040.2,031.9,35.6,0002.9,0021.12,0010.76,0009.78
2023-06-23 21:42:00,SystemResetWarning,0826.2,5.03,000.00,032.2,028.1,000.0,040.2,032.1,35.5,0003.0,0021.57,0010.86,0009.88
2023-06-23 21:43:00,SystemResetWarning,0826.3,4.96,000.00,032.5,027.3,000.0,040.1,032.3,34.2,0003.0,0021.52,0010.98,0010.01
2023-06-23 21:44:00,SystemResetWarning,0826.3,5.01,000.00,032.7,025.5,000.0,040.0,032.2,33.6,0003.0,0021.29,0011.09,0010.13
2023-06-23 21:45:00,SystemResetWarning,0826.3,5.01,000.00,032.7,024.8,000.0,040.0,032.1,33.7,0002.9,0020.38,0011.10,0010.21
2023-06-23 21:46:00,SystemResetWarning,0826.3,5.00,000.00,032.6,025.0,000.0,040.0,031.7,33.2,0002.8,0019.72,0011.06,0010.17
2023-06-23 21:47:00,SystemResetWarning,0826.3,5.00,000.00,032.4,025.4,000.0,040.1,031.5,34.0,0002.8,0019.19,0011.05,0010.14
2023-06-23 21:48:00,SystemResetWarning,0826.3,4.98,000.00,032.3,026.0,000.0,040.1,031.5,34.7,0002.9,0018.39,0010.99,0010.08
2023-06-23 21:49:00,SystemResetWarning,0826.2,5.02,000.00,032.3,026.5,000.0,040.1,031.6,34.8,0002.9,0018.51,0010.93,0010.00
2023-06-23 21:50:00,SystemResetWarning,0826.2,4.98,000.00,032.4,026.9,000.0,040.1,031.7,33.8,0002.8,0017.89,0010.88,0009.99
2023-06-23 21:51:00,SystemResetWarning,0826.2,5.00,000.00,032.4,027.3,000.0,040.2,031.8,33.7,0002.7,0017.35,0010.83,0009.96
2023-06-23 21:52:00,SystemResetWarning,0826.2,5.01,000.00,032.4,027.6,000.0,040.2,031.9,33.3,0002.5,0016.94,0010.75,0009.90
2023-06-23 21:53:00,SystemResetWarning,0826.2,5.01,000.00,032.4,027.9,000.0,040.2,032.0,32.7,0002.3,0017.16,0010.63,0009.81
2023-06-23 21:54:00,SystemResetWarning,0826.2,5.00,000.00,032.4,028.1,000.0,040.2,032.0,33.0,0002.2,0017.27,0010.51,0009.73
2023-06-23 21:55:00,SystemResetWarning,0826.2,4.99,000.00,032.4,028.3,000.0,040.3,032.1,32.8,0002.2,0017.07,0010.40,0009.64
2023-06-23 21:56:00,SystemResetWarning,0826.2,4.99,000.00,032.4,027.1,000.0,040.2,032.2,32.6,0002.2,0016.87,0010.33,0009.56
2023-06-23 21:57:00,SystemResetWarning,0826.2,5.00,000.00,032.4,025.3,000.0,040.1,032.1,32.8,0002.4,0017.80,0010.32,0009.56
2023-06-23 21:58:00,SystemResetWarning,0826.2,5.00,000.00,032.4,024.9,000.0,040.1,032.0,33.2,0002.3,0017.82,0010.38,0009.58
2023-06-23 21:59:00,SystemResetWarning,0826.2,5.01,000.00,032.1,025.1,000.0,040.1,031.7,33.7,0002.2,0017.84,0010.39,0009.61
